Weather History for Brainerd, MN

Change the Weather History Date:

Saturday, February 4, 2012

  Actual Average Record
Temperature  
Mean Temperature 30 °F -  
Max Temperature 39 °F 21 °F 49 °F (1991)
Min Temperature 21 °F -6 °F -46 °F (1982)
Degree Days  
Heating Degree Days 35    
Moisture  
Dew Point 22 °F    
Average Humidity 84    
Maximum Humidity 93    
Minimum Humidity 62    
Precipitation  
Precipitation 0.00 in - - ()
Sea Level Pressure  
Sea Level Pressure 30.44 in    
Wind  
Wind Speed 4 mph (WNW)    
Max Wind Speed 13 mph    
Max Gust Speed 20 mph    
Visibility 4 miles    
Events Fog    
Averages and records for this station are not official NWS values.
T = Trace of Precipitation, MM = Missing Value Source: NWS Daily Summary

Daily Weather History Graph

Daily Weather History Graph

Search for Another Location

Airport:

Trip Planner

Search our weather history database for the weather conditions in past years. The results will help you decide how hot, cold, wet, or windy it might be!

Date:

Astronomy

Feb. 04, 2012 Rise Set
Actual Time 7:36 AM CST 5:24 PM CST
Civil Twilight 7:04 AM CST 5:56 PM CST
Nautical Twilight 6:28 AM CST 6:32 PM CST
Astronomical Twilight 5:53 AM CST 7:07 PM CST
Moon 2:16 PM CST (2/4) 5:09 AM CST (2/4)
Length of Visible Light 10h 52m
Length of Day
9h 48m
Waxing Gibbous, 89% of the Moon is Illuminated
Feb 4
Waxing Gibbous
Feb 7
Full
Feb 14
Last Quarter
Feb 21
New
Feb 29
First Quarter

Hourly Weather History & Observations

Time (CST) Temp. Windchill Dew Point Humidity Pressure Visibility Wind Dir Wind Speed Gust Speed Precip Events Conditions
12:53 AM 27.0 °F - 24.1 °F 89% 30.51 in 0.2 mi Calm Calm - N/A Fog Light Freezing Fog
1:53 AM 27.0 °F 23.0 °F 24.1 °F 89% 30.50 in 0.2 mi WNW 3.5 mph - N/A Fog Light Freezing Fog
2:53 AM 26.1 °F 20.5 °F 23.0 °F 88% 30.48 in 0.2 mi North 4.6 mph - N/A Fog Light Freezing Fog
3:53 AM 26.1 °F 21.9 °F 21.9 °F 84% 30.48 in 0.2 mi WNW 3.5 mph - N/A Fog Light Freezing Fog
4:43 AM 26.6 °F 22.6 °F 21.2 °F 80% 30.42 in 0.5 mi NNW 3.5 mph - N/A Fog Light Freezing Fog
4:53 AM 25.0 °F 20.7 °F 21.9 °F 88% 30.48 in 0.5 mi WNW 3.5 mph - N/A Fog Light Freezing Fog
5:13 AM 24.8 °F 20.5 °F 21.2 °F 86% 30.42 in 0.2 mi WNW 3.5 mph - N/A Fog Light Freezing Fog
5:39 AM 24.8 °F 19.1 °F 21.2 °F 86% 30.41 in 0.5 mi NW 4.6 mph - N/A Fog Light Freezing Fog
5:53 AM 24.1 °F 18.2 °F 21.0 °F 88% 30.47 in 0.5 mi NW 4.6 mph - N/A Fog Light Freezing Fog
6:53 AM 23.0 °F 18.4 °F 19.9 °F 88% 30.48 in 0.5 mi NNW 3.5 mph - N/A Fog Light Freezing Fog
7:50 AM 21.2 °F - 19.4 °F 93% 30.40 in 0.2 mi Calm Calm - N/A Fog Light Freezing Fog
7:53 AM 21.9 °F - 19.0 °F 89% 30.47 in 0.2 mi Calm Calm - N/A Fog Light Freezing Fog
8:53 AM 21.0 °F - 18.0 °F 88% 30.47 in 0.2 mi Calm Calm - N/A Fog Light Freezing Fog
9:00 AM 21.2 °F - 17.6 °F 86% 30.41 in 0.2 mi Calm Calm - N/A Fog Light Freezing Fog
9:17 AM 21.2 °F 16.4 °F 19.4 °F 93% 30.40 in 0.8 mi SW 3.5 mph - N/A   Overcast
9:39 AM 23.0 °F 17.0 °F 19.4 °F 86% 30.40 in 2.0 mi SSW 4.6 mph - N/A   Mostly Cloudy
9:43 AM 23.0 °F 18.4 °F 19.4 °F 86% 30.40 in 5.0 mi SW 3.5 mph - N/A   Scattered Clouds
9:53 AM 24.1 °F 19.7 °F 19.9 °F 84% 30.47 in 9.0 mi SW 3.5 mph - N/A   Partly Cloudy
10:53 AM 28.0 °F 22.8 °F 24.1 °F 85% 30.45 in 10.0 mi SW 4.6 mph - N/A   Clear
11:53 AM 32.0 °F 27.5 °F 27.0 °F 82% 30.44 in 10.0 mi WSW 4.6 mph - N/A   Clear
12:53 PM 33.1 °F 27.7 °F 28.0 °F 82% 30.41 in 10.0 mi SW 5.8 mph - N/A   Clear
1:53 PM 39.0 °F 32.8 °F 27.0 °F 62% 30.39 in 10.0 mi NW 9.2 mph 19.6 mph N/A   Clear
2:53 PM 39.9 °F 32.5 °F 28.0 °F 63% 30.38 in 10.0 mi West 12.7 mph 18.4 mph N/A   Clear
8:53 PM 28.9 °F 20.4 °F 24.1 °F 82% 30.39 in 10.0 mi NW 9.2 mph 17.3 mph N/A   Overcast
9:53 PM 28.0 °F 18.1 °F 23.0 °F 81% 30.39 in 10.0 mi North 11.5 mph - N/A   Overcast
10:53 PM 28.0 °F 20.0 °F 23.0 °F 81% 30.40 in 10.0 mi NNW 8.1 mph - N/A   Overcast
11:53 PM 27.0 °F 21.6 °F 21.9 °F 81% 30.40 in 10.0 mi North 4.6 mph - N/A   Overcast